FW4672 Weather Reports


Display with metric or nautical units.
time (UTC)temp
F
wind
direction
speed
MPH
gust
MPH
rain 1hr
in
rain 24hr
in
rain mn
in
humidity
%
barometer
mb
20260504034521 62 322 0.0 0.0 0.00 0.00 0.00 70 1033.6
20260504033523 62 333 0.0 0.0 0.00 0.00 0.00 69 1033.5
20260504032522 62 320 0.0 0.0 0.00 0.00 0.00 69 1033.6
20260504024623 62 316 0.0 0.0 0.00 0.00 0.00 69 1032.9
20260504023623 62 323 0.0 0.0 0.00 0.00 0.00 69 1032.9
20260504022623 62 315 0.0 0.0 0.00 0.00 0.00 67 1033.1
20260504021621 62 325 0.0 0.0 0.00 0.00 0.00 67 1033.0
20260504020622 63 336 0.0 0.0 0.00 0.00 0.00 67 1033.0
20260504014721 63 327 0.0 0.0 0.00 0.00 0.00 67 1032.9
20260504012723 63 317 0.0 0.0 0.00 0.00 0.00 66 1032.8
20260504011725 63 319 0.0 0.0 0.00 0.00 0.00 65 1032.7
20260504010722 63 316 0.0 0.0 0.00 0.00 0.00 65 1032.7
20260504005722 63 320 0.0 0.0 0.00 0.00 0.00 64 1032.6
20260504004821 63 320 0.0 0.0 0.00 0.00 0.00 64 1032.4
20260504003821 64 316 0.0 0.0 0.00 0.00 0.00 63 1032.5
20260504002821 64 321 0.0 0.0 0.00 0.00 0.00 64 1032.2
20260504000822 65 323 0.0 0.0 0.00 0.00 0.00 63 1032.1
20260503235823 65 318 0.0 0.0 0.00 0.00 0.00 62 1032.0
20260503234823 65 323 0.0 0.0 0.00 0.00 0.00 61 1032.1
20260503233823 66 316 0.0 0.0 0.00 0.00 0.00 61 1031.6
20260503231921 67 318 0.0 0.0 0.00 0.00 0.00 59 1031.7
20260503230922 68 321 0.0 0.0 0.00 0.00 0.00 59 1032.0
20260503230021 69 316 0.0 0.0 0.00 0.00 0.00 59 1032.0
20260503225023 69 320 0.0 0.0 0.00 0.00 0.00 57 1032.0
20260503224022 70 321 0.0 0.0 0.00 0.00 0.00 55 1032.0
20260503223023 70 327 0.0 0.0 0.00 0.00 0.00 57 1031.9
20260503222121 70 330 0.0 0.0 0.00 0.00 0.00 59 1032.1
20260503221122 69 325 0.0 0.0 0.00 0.00 0.00 61 1032.1
20260503220125 69 322 0.0 0.0 0.00 0.00 0.00 60 1032.1
20260503215123 71 323 0.0 0.0 0.00 0.00 0.00 57 1032.2
20260503214220 70 341 0.0 0.0 0.00 0.00 0.00 59 1032.3
20260503213222 70 324 0.0 0.0 0.00 0.00 0.00 59 1032.4
20260503212221 69 319 0.0 0.0 0.00 0.00 0.00 60 1032.7
20260503211222 69 325 0.0 0.0 0.00 0.00 0.00 62 1032.5
20260503210222 69 322 0.0 0.0 0.00 0.00 0.00 62 1032.5
20260503205223 68 322 0.0 0.0 0.00 0.00 0.00 63 1032.6
20260503204222 67 319 0.0 0.0 0.00 0.00 0.00 65 1032.7
20260503203321 67 332 0.0 0.0 0.00 0.00 0.00 66 1032.8
20260503201322 66 316 0.0 0.0 0.00 0.00 0.00 67 1033.0
20260503200322 66 320 0.0 0.0 0.00 0.00 0.00 67 1033.1
20260503195321 66 317 0.0 0.0 0.00 0.00 0.00 68 1033.2
20260503194324 67 318 0.0 0.0 0.00 0.00 0.00 67 1033.2
20260503193421 67 323 0.0 0.0 0.00 0.00 0.00 67 1033.2
20260503192424 67 321 0.0 0.0 0.00 0.00 0.00 68 1033.2
20260503191423 67 320 0.0 0.0 0.00 0.00 0.00 69 1033.2
20260503185522 66 323 0.0 0.0 0.00 0.00 0.00 70 1033.4
20260503184522 65 331 0.0 0.0 0.00 0.00 0.00 70 1033.2
20260503182521 65 326 0.0 0.0 0.00 0.00 0.00 70 1033.4
20260503181524 65 329 0.0 0.0 0.00 0.00 0.00 72 1033.4
20260503175523 65 318 0.0 0.0 0.00 0.00 0.00 73 1033.4
20260503174621 65 327 0.0 0.0 0.00 0.00 0.00 73 1033.5
20260503173621 65 323 0.0 0.0 0.00 0.00 0.00 74 1033.4
20260503170623 65 317 0.0 0.0 0.00 0.00 0.00 77 1033.2
20260503150823 62 330 0.0 0.0 0.00 0.00 0.00 81 1032.9
20260503131023 60 328 0.0 0.0 0.00 0.00 0.00 83 1032.1
20260503120124 60 329 0.0 0.0 0.00 0.00 0.00 82 1031.5
20260503110221 60 329 0.0 0.0 0.00 0.00 0.00 81 1031.3
20260503080923 61 337 0.0 0.0 0.00 0.00 0.00 86 1032.3
20260503072922 61 315 0.0 0.0 0.00 0.00 0.00 86 1032.6
20260503070921 60 315 0.0 0.0 0.00 0.00 0.00 86 1032.7
20260503054927 61 333 0.0 0.0 0.00 0.00 0.00 88 1032.2
20260503053929 61 315 0.0 0.0 0.00 0.00 0.00 87 1032.4
20260503052929 61 316 0.0 0.0 0.00 0.00 0.00 88 1032.3
20260503051927 61 315 0.0 0.0 0.00 0.00 0.00 88 1032.2
20260503045927 61 315 0.0 0.0 0.00 0.00 0.00 87 1031.9
20260503044928 61 315 0.0 0.0 0.00 0.00 0.00 87 1031.6
20260503044027 61 329 0.0 0.0 0.00 0.00 0.00 87 1031.5
20260503043028 61 321 0.0 0.0 0.00 0.00 0.00 86 1031.5
20260503042029 61 315 0.0 0.0 0.00 0.00 0.00 86 1031.2
20260503041927 61 315 0.0 0.0 0.00 0.00 0.00 85 1031.1
20260503040929 61 316 0.0 0.0 0.00 0.00 0.00 86 1031.0
20260503035930 61 317 0.0 0.0 0.00 0.00 0.00 86 1030.8
20260503035026 61 337 0.0 0.0 0.00 0.00 0.00 85 1030.8